BLOCK DM-SL DEB, 45041

Orbit data source: Space-Track

BLOCK DM-SL DEB, 45041 is space debris in GEO originally from a launch on Tue, 24 Dec 2019 UTC launched from the Tyuratam Missile And Space Complex (TTMTR). Debris objects in space refer to the collection of defunct objects orbiting the Earth. Examples of debris include non-operational satellites, rocket bodies, and fragments generated from explosions, collisions, or faulty payload assembly.

Loading next visibility...
Identifier
45041, 2019-095C
Orbit
GEO
Country
Flag of CISCIS
Related business
Manufacturer
RKKE
Mission
Spacecraft
Bus & Motor
SOZ, Unknown motor
Mass
56 kg wet, 56 kg dry
Launch date (UTC)
2019-12-24 (6 years ago)
Launch vehicle
Unknown
Launch site
Tyuratam Missile And Space Complex (TTMTR)
Object type
Payload
Rocket body
Debris
Shape & HBR
Cyl, 0.6 m
Radar Cross Section
0.660 m²

Expand to show TLE details & history
Last TLE update: 6 days ago

TLE from 6 days ago
0 BLOCK DM-SL DEB
1 45041U 19095C   25347.54969192 -.00000002  00000-0  00000-0 0  9997
2 45041   4.9090  75.7686 0290179  35.3117 326.3606  1.03012229 22421
Epoch: 2025-12-13T13:11Z
TLE epoch observation values (Epoch: 2025-12-13T13:11:33.381Z)
Latitude
-0.00001°
Longitude
155.18146°
Altitude
34,041.394 km
Speed
3.178 km/s
True Right ascension
05h 02m 11s
True Declination
0° 00' 00"
Sunlit
Object was in daylight at epoch
Visualization orbit readout
Latitude
Unknown
Longitude
Unknown
Altitude
Unknown
Speed
Unknown
Apparent Right ascension
Unknown
Apparent Declination
Unknown
Sunlit
N/A
Visualization observer readout
Local Sidereal Time
14:08:08
Azimuth
Unknown
Elevation
Unknown
Doppler factor
Unknown
Orbital elements
Apogee altitude
36,238.276 km
Perigee altitude
33,834.744 km
Semi-major axis
41,414.647 km
Eccentricity
0.02902
Inclination
4.909°
RAAN
75.7686°
Arg. of periapsis
35.3117°
True anomaly
324.46162°
Mean anomaly
326.3606°
Eccentric anomaly
325.41691°
Mean motion
0.25752 °/min
Orbital period
1,397.95 mins
BSTAR
0
Loading maneuver chart data...
Computing Atmospheric mass density...
Loading historical data...
Loading historical data...
Loading historical data...
Loading historical data...
Loading historical data...
Loading historical data...
Loading historical data...
Other satellites on launch #95 in the year 2019 (2019-12-24 UTC)

Documentation

Showing up to 5 results
|